sat.trackr.live / text

‹ back to catalog

STARLINK-3941

NORAD 52638 · 2022-052AS

PAYLOAD ACTIVE UNKNOWN

§ Identity

Operator
Country
US
Launch date
2022-05-14
Launch site
AFETR
Launch vehicle
Mass (kg)
RCS (m²)

Purposes: comms

External: N2YO · Heavens-Above · Gunter

§ Orbital elements

Epoch: 2026-05-24T19:27:26.777376Z

Period
95.44 min
Inclination
53.2161°
Eccentricity
0.0001414
Mean motion
15.08838270 rev/d
Perigee alt
538.8 km
Apogee alt
540.7 km
Semi-major
6,917.9 km
B*
4.2680e-5
RAAN
287.3980°
Arg perigee
90.4511°
Mean anomaly
269.6643°
Rev number
22,329

§ Raw data

STARLINK-39411 52638U 22052AS  26144.81072659  .00000391  00000+0  42680-4 0  99962 52638  53.2161 287.3980 0001414  90.4511 269.6643 15.08838270223297

JSON: /api/v1/satellites/52638 · /tle

For live sub-satellite position, see the globe view (requires WebGL).

§ Visibility from observer

Set your observer location to see the next 7 days of passes ≥ 10°. The values pass through the URL so the page stays shareable.

No JS? Fill the form by hand. The geolocation button needs JavaScript.